sat.trackr.live / text

‹ back to catalog

STARLINK-37144

NORAD 68556 · 2026-070Q

PAYLOAD ACTIVE UNKNOWN

§ Identity

Operator
Country
US
Launch date
2026-04-02
Launch site
AFETR
Launch vehicle
Mass (kg)
RCS (m²)

Purposes: comms

External: N2YO · Heavens-Above · Gunter

§ Orbital elements

Epoch: 2026-05-24T22:02:25.524672Z

Period
93.85 min
Inclination
53.1591°
Eccentricity
0.0000958
Mean motion
15.34393912 rev/d
Perigee alt
462.1 km
Apogee alt
463.4 km
Semi-major
6,840.9 km
B*
5.8444e-4
RAAN
7.9338°
Arg perigee
69.6260°
Mean anomaly
290.4845°
Rev number
823

§ Raw data

STARLINK-371441 68556U 26070Q   26144.91835098  .00019417  00000+0  58444-3 0  99942 68556  53.1591   7.9338 0000958  69.6260 290.4845 15.34393912  8232

JSON: /api/v1/satellites/68556 · /tle

For live sub-satellite position, see the globe view (requires WebGL).

§ Visibility from observer

Set your observer location to see the next 7 days of passes ≥ 10°. The values pass through the URL so the page stays shareable.

No JS? Fill the form by hand. The geolocation button needs JavaScript.